Location: Lombard
(41.8800°N, 88.0080°W)
Time: 23:03:23
(UTC-05:00)

Transit 2A - Pass Details

Date: 15 February 2023
Orbit: 591 x 964 km, 66.7° (Epoch: 20 March)

Event Time Altitude Azimuth Distance (km) Brightness Sun altitude
Rises 20:36:25 0° 338° (NNW) 3,497 9.9 -36.0°
Reaches altitude 10° 20:40:08 10° 2° (N) 2,617 8.9 -36.6°
Enters shadow 20:40:12 10° 2° (N) 2,604 8.9 -36.6°
Maximum altitude 20:43:33 15° 36° (NE) 2,307 - -37.2°
Drops below altitude 10° 20:47:03 10° 70° (ENE) 2,687 - -37.8°
Sets 20:50:55 0° 92° (E) 3,646 - -38.5°
